QPF
0.00 0.00 0.00 0.00 0.00 0.00 0.00 0.00 0.00 0.00 0.00 0.00 0.00 0.00 0.00 0.00 0.00 0.00 0.00 0.00 0.00 0.00 0.00 0.00 0.00 0.00 0.00 0.00 0.00 0.00 0.00 0.00 0.00 0.00 0.00 0.00 0.00 0.00 0.00 0.00 0.00 0.00 0.00 0.00 0.00
0.00 0.00 0.00 0.00 0.00 0.00 0.00 0.00 0.00 0.00 0.00 0.00 0.00 0.00 0.00 0.00 0.00 0.00 0.00 0.00 0.00 0.00 0.00 0.00 0.00 0.00 0.00 0.00 0.00 0.00 0.00 0.00 0.00 0.00 0.00 0.00 0.00 0.00 0.00 0.00 0.00 0.00 0.00 0.00 0.00
0.00 0.00 0.00 0.00 0.00 0.00 0.00 0.00 0.00 0.00 0.00 0.00 0.00 0.00 0.00 0.00 0.00 0.00 0.00 0.00 0.00 0.00 0.00 0.00 0.00 0.00 0.00 0.00 0.00 0.00 0.00 0.00 0.00 0.00 0.00 0.00 0.00 0.00 0.00 0.00 0.00 0.00 0.00 0.00 0.00
0.00 0.00 0.00 0.00 0.00 0.00 0.00 0.00 0.00 0.00 0.00 0.00 0.00 0.00 0.00 0.00 0.00 0.00 0.00 0.00 0.00 0.00 0.00 0.00 0.00 0.00 0.00 0.00 0.00 0.00 0.00 0.00 0.00 0.00 0.00 0.00 0.00 0.00 0.00 0.00 0.00 0.00 0.00 0.00 0.00
0.00 0.00 0.00 0.00 0.00 0.00 0.00 0.00 0.00 0.00 0.00 0.00 0.00 0.00 0.00 0.00 0.00 0.00 0.00 0.00 0.00 0.00 0.00 0.00 0.00 0.00 0.00 0.00 0.00 0.00 0.00 0.00 0.00 0.00 0.00 0.00 0.00 0.00 0.00 0.00 0.00 0.00 0.00 0.00 0.00
0.00 0.00 0.00 0.00 0.00 0.00 0.00 0.00 0.00 0.00 0.00 0.00 0.00 0.00 0.00 0.00 0.00 0.00 0.00 0.00 0.00 0.00 0.00 0.00 0.00 0.00 0.00 0.00 0.00 0.00 0.00 0.00 0.00 0.00 0.00 0.00 0.00 0.00 0.00 0.00 0.00 0.00 0.00 0.00 0.00
0.00 0.00 0.00 0.00 0.00 0.00 0.00 0.00 0.00 0.00 0.00 0.00 0.00 0.00 0.00 0.00 0.00 0.00 0.00 0.00 0.00 0.00 0.00 0.00 0.00 0.00 0.00 0.00 0.00 0.00 0.00 0.00 0.00 0.00 0.00 0.00 0.00 0.00 0.00 0.00 0.00 0.00 0.00 0.00 0.00
0.00 0.00 0.00 0.00 0.00 0.00 0.00 0.00 0.00 0.00 0.00 0.00 0.00 0.00 0.00 0.00 0.00 0.00 0.00 0.00 0.00 0.00 0.00 0.00 0.00 0.00 0.00 0.00 0.00 0.00 0.00 0.00 0.00 0.00 0.00 0.00 0.00 0.00 0.00 0.00 0.00 0.00 0.00 0.00 0.00
0.00 0.00 0.00 0.00 0.00 0.00 0.00 0.00 0.00 0.00 0.00 0.00 0.00 0.00 0.00 0.00 0.00 0.00 0.00 0.00 0.00 0.00 0.00 0.00 0.00 0.00 0.00 0.00 0.00 0.00 0.00 0.00 0.00 0.00 0.00 0.00 0.00 0.00 0.00 0.00 0.00 0.00 0.00 0.00 0.00
0.00 0.00 0.00 0.00 0.00 0.00 0.00 0.00 0.00 0.00 0.00 0.00 0.00 0.00 0.00 0.00 0.00 0.00 0.00 0.00 0.00 0.00 0.00 0.00 0.00 0.00 0.00 0.00 0.00 0.00 0.00 0.00 0.00 0.00 0.00 0.00 0.00 0.00 0.00 0.00 0.00 0.00 0.00 0.00 0.00
0.00 0.00 0.00 0.00 0.00 0.00 0.00 0.00 0.00 0.00 0.00 0.00 0.00 0.00 0.00 0.00 0.00 0.00 0.00 0.00 0.00 0.00 0.00 0.00 0.00 0.00 0.00 0.00 0.00 0.00 0.00 0.00 0.00 0.00 0.00 0.00 0.00 0.00 0.00 0.00 0.00 0.00 0.00 0.00 0.00
0.00 0.00 0.00 0.00 0.00 0.00 0.00 0.00 0.00 0.00 0.00 0.00 0.00 0.00 0.00 0.00 0.00 0.00 0.00 0.00 0.00 0.00 0.00 0.00 0.00 0.00 0.00 0.00 0.00 0.00 0.00 0.00 0.00 0.00 0.00 0.00 0.00 0.00 0.00 0.00 0.00 0.00 0.00 0.00 0.00
0.00 0.00 0.00 0.00 0.00 0.00 0.00 0.00 0.00 0.00 0.00 0.00 0.00 0.00 0.00 0.00 0.00 0.00 0.00 0.00 0.00 0.00 0.00 0.00 0.00 0.00 0.00 0.00 0.00 0.00 0.00 0.00 0.00 0.00 0.00 0.00 0.00 0.00 0.00 0.00 0.00 0.00 0.00 0.00 0.00
0.00 0.00 0.00 0.00 0.00 0.00 0.00 0.00 0.00 0.00 0.00 0.00 0.00 0.00 0.00 0.00 0.00 0.00 0.00 0.00 0.00 0.00 0.00 0.00 0.00 0.00 0.00 0.00 0.00 0.00 0.00 0.00 0.00 0.00 0.00 0.00 0.00 0.00 0.00 0.00 0.00 0.00 0.00 0.00 0.00
0.00 0.00 0.00 0.00 0.00 0.00 0.00 0.00 0.00 0.00 0.00 0.00 0.00 0.00 0.00 0.00 0.00 0.00 0.00 0.00 0.00 0.00 0.00 0.00 0.00 0.00 0.00 0.00 0.00 0.00 0.00 0.00 0.00 0.00 0.00 0.00 0.00 0.00 0.00 0.00 0.00 0.00 0.00 0.00 0.00
0.00 0.00 0.00 0.00 0.00 0.00 0.00 0.00 0.00 0.00 0.00 0.00 0.00 0.00 0.00 0.00 0.00 0.00 0.00 0.00 0.00 0.00 0.00 0.00 0.00 0.00 0.00 0.00 0.00 0.00 0.00 0.00 0.00 0.00 0.00 0.00 0.00 0.00 0.00 0.00 0.00 0.00 0.00 0.00 0.00
0.00 0.00 0.00 0.00 0.00 0.00 0.00 0.00 0.00 0.00 0.00 0.00 0.00 0.00 0.00 0.00 0.00 0.00 0.00 0.00 0.00 0.00 0.00 0.00 0.00 0.00 0.00 0.00 0.00 0.00 0.00 0.00 0.00 0.00 0.00 0.00 0.00 0.00 0.00 0.00 0.00 0.00 0.00 0.00 0.00
0.00 0.00 0.00 0.00 0.00 0.00 0.00 0.00 0.00 0.00 0.00 0.00 0.00 0.00 0.00 0.00 0.00 0.00 0.00 0.00 0.00 0.00 0.00 0.00 0.00 0.00 0.00 0.00 0.00 0.00 0.00 0.00 0.00 0.00 0.00 0.00 0.00 0.00 0.00 0.00 0.00 0.00 0.00 0.00 0.00
0.00 0.00 0.00 0.00 0.00 0.00 0.00 0.00 0.00 0.00 0.00 0.00 0.00 0.00 0.00 0.00 0.00 0.00 0.00 0.00 0.00 0.00 0.00 0.00 0.00 0.00 0.00 0.00 0.00 0.00 0.00 0.00 0.00 0.00 0.00 0.00 0.00 0.00 0.00 0.00 0.00 0.00 0.00 0.00 0.00
0.00 0.00 0.00 0.00 0.00 0.00 0.00 0.00 0.00 0.00 0.00 0.00 0.00 0.00 0.00 0.00 0.00 0.00 0.00 0.00 0.00 0.00 0.00 0.00 0.00 0.00 0.00 0.00 0.00 0.00 0.00 0.00 0.00 0.00 0.00 0.00 0.00 0.00 0.00 0.00 0.01 0.01 0.01 0.00 0.00
0.00 0.00 0.00 0.00 0.00 0.00 0.00 0.00 0.00 0.00 0.00 0.00 0.00 0.00 0.00 0.00 0.00 0.00 0.00 0.00 0.00 0.00 0.00 0.00 0.00 0.00 0.00 0.00 0.00 0.00 0.00 0.00 0.00 0.00 0.00 0.00 0.00 0.00 0.00 0.00 0.00 0.01 0.01 0.01 0.03
0.00 0.00 0.00 0.00 0.00 0.00 0.00 0.00 0.00 0.00 0.00 0.00 0.00 0.00 0.00 0.00 0.00 0.00 0.00 0.00 0.00 0.00 0.00 0.00 0.00 0.00 0.00 0.00 0.00 0.00 0.00 0.00 0.00 0.00 0.00 0.00 0.00 0.00 0.00 0.00 0.01 0.02 0.03 0.05 0.05
0.00 0.00 0.00 0.00 0.00 0.00 0.00 0.00 0.00 0.00 0.00 0.00 0.00 0.00 0.00 0.00 0.00 0.00 0.00 0.00 0.00 0.00 0.00 0.00 0.00 0.00 0.00 0.00 0.00 0.00 0.00 0.00 0.00 0.00 0.00 0.00 0.00 0.00 0.00 0.00 0.01 0.03 0.02 0.05 0.05
0.00 0.00 0.00 0.00 0.00 0.00 0.00 0.00 0.00 0.00 0.00 0.00 0.00 0.00 0.00 0.00 0.00 0.00 0.00 0.00 0.00 0.00 0.00 0.00 0.00 0.00 0.00 0.00 0.00 0.00 0.00 0.00 0.00 0.00 0.00 0.00 0.00 0.00 0.00 0.00 0.00 0.01 0.02 0.03 0.02
0.00 0.00 0.00 0.00 0.00 0.00 0.00 0.00 0.00 0.00 0.00 0.00 0.00 0.00 0.00 0.00 0.00 0.00 0.00 0.00 0.00 0.00 0.00 0.00 0.00 0.00 0.00 0.00 0.00 0.00 0.00 0.00 0.00 0.00 0.00 0.00 0.00 0.00 0.00 0.00 0.00 0.02 0.01 0.01 0.02
0.00 0.00 0.00 0.00 0.00 0.00 0.00 0.00 0.00 0.00 0.00 0.00 0.00 0.00 0.00 0.00 0.00 0.00 0.00 0.00 0.00 0.00 0.00 0.00 0.01 0.00 0.00 0.00 0.00 0.00 0.00 0.00 0.00 0.00 0.00 0.00 0.00 0.00 0.00 0.00 0.00 0.00 0.00 0.00 0.00
0.00 0.00 0.00 0.00 0.00 0.00 0.00 0.00 0.00 0.00 0.00 0.00 0.00 0.00 0.00 0.00 0.00 0.00 0.00 0.00 0.00 0.00 0.00 0.00 0.01 0.01 0.01 0.00 0.00 0.00 0.00 0.00 0.00 0.00 0.00 0.00 0.00 0.00 0.00 0.00 0.00 0.00 0.00 0.00 0.01
MSLP
1018.82 1018.36 1017.92 1017.56 1017.14 1016.84 1016.53 1015.93 1015.45 1015.00 1014.55 1013.99 1013.43 1012.85 1012.28 1011.82 1010.92 1010.41 1009.29 1007.66 1007.27 1007.30 1007.68 1007.74 1007.62 1007.71 1008.00 1008.29 1008.43 1008.85 1009.84 1010.34 1009.96 1009.53 1008.73 1007.96 1007.61 1007.41 1007.52 1008.25 1008.86 1009.57 1010.25 1010.81 1012.40
1019.06 1018.46 1017.89 1017.42 1017.02 1016.63 1016.22 1015.96 1015.20 1014.87 1014.35 1013.76 1013.21 1012.65 1012.12 1011.82 1011.22 1009.66 1007.61 1007.41 1007.32 1007.54 1007.78 1007.92 1007.83 1007.64 1008.22 1008.37 1008.44 1008.92 1009.72 1009.53 1009.26 1008.92 1008.44 1007.76 1007.66 1007.51 1007.78 1008.44 1009.20 1010.08 1010.62 1011.32 1012.55
1019.04 1018.32 1017.74 1017.30 1017.06 1016.64 1016.17 1015.56 1015.18 1014.67 1014.21 1013.53 1013.01 1012.42 1011.97 1011.74 1010.83 1008.77 1007.72 1007.66 1007.56 1007.75 1007.78 1007.85 1007.83 1007.89 1008.12 1008.28 1008.52 1008.77 1008.94 1008.78 1008.54 1008.13 1007.92 1007.68 1007.42 1007.25 1007.91 1008.72 1008.98 1009.95 1011.12 1011.92 1012.79
1018.99 1018.43 1017.81 1017.12 1016.74 1016.36 1015.85 1015.46 1015.07 1014.45 1014.06 1013.42 1012.89 1012.20 1011.67 1011.54 1010.34 1008.51 1008.11 1007.94 1007.83 1007.74 1007.91 1008.02 1008.14 1008.28 1008.29 1008.37 1008.44 1008.56 1008.27 1008.19 1007.90 1007.72 1007.64 1007.34 1006.91 1007.34 1007.68 1007.76 1007.86 1009.46 1010.43 1011.76 1012.77
1018.86 1018.39 1017.80 1017.04 1016.30 1015.83 1015.35 1014.80 1014.50 1014.09 1013.73 1013.36 1012.89 1012.19 1011.56 1010.82 1009.22 1008.33 1008.28 1008.12 1007.99 1008.03 1008.03 1008.16 1008.29 1008.44 1008.48 1008.34 1008.31 1008.37 1008.07 1007.75 1007.44 1007.64 1007.22 1006.96 1006.97 1007.32 1007.88 1008.04 1008.31 1009.68 1010.98 1011.89 1012.48
1018.72 1018.20 1017.53 1016.84 1016.08 1015.34 1014.74 1014.52 1014.22 1013.82 1013.50 1013.09 1012.78 1012.48 1011.91 1010.23 1008.59 1008.39 1008.37 1008.39 1008.17 1008.20 1008.24 1008.25 1008.36 1008.31 1008.54 1008.57 1008.65 1008.52 1008.33 1007.86 1007.22 1007.20 1006.72 1006.89 1007.08 1006.94 1007.98 1008.49 1008.94 1009.97 1010.83 1011.64 1012.14
1018.46 1017.91 1017.18 1016.61 1016.10 1015.31 1014.64 1014.03 1013.62 1013.62 1012.94 1012.81 1012.74 1012.60 1011.51 1009.37 1008.67 1008.53 1008.44 1008.48 1008.33 1008.17 1008.30 1008.28 1008.33 1008.53 1008.68 1008.86 1008.94 1008.92 1008.54 1007.81 1007.31 1007.12 1006.90 1006.95 1007.54 1007.34 1007.78 1008.61 1009.29 1010.04 1010.56 1011.19 1011.62
1018.38 1017.62 1016.86 1016.12 1015.61 1014.82 1013.95 1013.45 1013.00 1012.52 1012.50 1012.65 1012.67 1012.23 1010.55 1008.70 1008.53 1008.42 1008.32 1008.24 1008.22 1008.34 1008.25 1008.20 1008.35 1008.82 1009.18 1009.40 1009.48 1009.84 1009.69 1009.33 1007.98 1007.56 1007.26 1007.18 1007.57 1007.38 1007.85 1008.42 1009.33 1009.71 1010.10 1010.59 1011.07
1018.01 1017.61 1016.43 1015.66 1014.88 1014.15 1013.39 1013.01 1012.61 1012.39 1012.32 1012.40 1012.37 1011.78 1009.69 1008.47 1008.48 1008.20 1008.16 1008.22 1008.12 1008.25 1008.20 1008.18 1008.63 1009.73 1009.95 1010.54 1011.16 1011.29 1010.72 1010.28 1009.04 1008.18 1007.68 1007.68 1007.88 1007.71 1007.98 1008.68 1009.24 1009.54 1009.71 1009.91 1010.47
1017.90 1017.08 1016.66 1015.62 1014.70 1013.89 1013.04 1012.64 1012.63 1012.63 1012.56 1012.28 1011.91 1011.62 1009.54 1009.46 1009.01 1008.36 1008.17 1008.18 1008.26 1008.33 1008.79 1009.04 1009.97 1010.64 1011.39 1011.58 1012.24 1011.92 1011.40 1010.58 1009.92 1009.24 1008.70 1008.67 1008.22 1007.88 1008.14 1008.28 1008.66 1009.23 1009.46 1009.52 1009.59
1017.83 1016.84 1015.97 1015.21 1014.62 1013.43 1012.66 1012.67 1013.40 1012.90 1012.65 1012.90 1012.38 1011.62 1010.51 1009.82 1008.72 1008.35 1008.20 1008.28 1008.43 1008.97 1009.86 1010.35 1011.02 1011.37 1011.72 1011.74 1011.89 1011.94 1011.83 1011.35 1010.29 1009.50 1009.25 1008.81 1008.72 1008.11 1007.93 1008.58 1008.71 1008.54 1008.70 1008.82 1008.80
1017.88 1016.75 1015.72 1014.81 1014.28 1013.37 1013.00 1014.07 1015.29 1015.49 1014.13 1012.22 1011.92 1011.41 1010.78 1010.19 1009.54 1008.53 1008.19 1008.58 1009.03 1009.81 1010.30 1011.02 1011.25 1011.30 1011.37 1011.59 1011.72 1011.74 1011.80 1011.56 1010.48 1009.85 1009.68 1008.94 1008.35 1007.63 1007.51 1007.26 1007.16 1007.40 1007.98 1008.04 1008.40
1017.88 1016.96 1015.90 1014.65 1014.09 1014.00 1014.60 1014.77 1014.78 1015.05 1014.72 1012.47 1011.51 1010.85 1010.36 1010.18 1009.58 1008.84 1008.45 1008.78 1009.32 1010.20 1010.83 1011.36 1011.03 1010.94 1011.27 1011.38 1011.52 1011.63 1011.78 1011.50 1011.31 1010.38 1009.60 1009.37 1008.82 1007.75 1006.98 1006.64 1006.85 1007.17 1007.37 1008.06 1008.29
1017.86 1017.01 1016.01 1015.04 1014.41 1015.28 1014.95 1014.84 1014.74 1014.72 1014.08 1012.46 1011.07 1010.41 1010.27 1010.08 1009.57 1008.84 1008.53 1008.77 1009.50 1010.27 1011.14 1011.26 1010.76 1010.82 1010.93 1011.04 1011.18 1011.38 1010.93 1011.04 1011.14 1011.38 1010.94 1010.04 1010.01 1008.46 1007.41 1006.88 1006.81 1006.86 1007.24 1006.96 1008.04
1017.75 1017.10 1016.33 1015.53 1015.92 1015.59 1015.06 1014.53 1014.12 1014.17 1014.02 1012.47 1010.87 1010.12 1010.36 1010.69 1010.53 1009.15 1008.74 1008.89 1009.69 1010.46 1011.35 1011.17 1010.84 1010.83 1010.80 1010.58 1010.54 1010.72 1010.72 1011.07 1011.14 1011.55 1011.54 1011.00 1010.92 1008.65 1008.23 1007.63 1007.09 1006.97 1007.36 1008.16 1008.44
1017.42 1016.95 1016.54 1016.15 1016.27 1015.28 1014.70 1014.43 1014.05 1014.04 1014.27 1012.94 1011.90 1011.45 1011.38 1011.49 1011.30 1010.56 1009.73 1009.49 1009.96 1010.77 1011.36 1011.24 1010.90 1010.66 1010.23 1010.02 1010.21 1010.44 1010.70 1011.00 1011.55 1012.21 1011.94 1010.93 1011.09 1009.37 1008.58 1008.25 1007.99 1008.08 1008.29 1008.77 1009.38
1017.13 1016.54 1016.26 1016.13 1015.73 1015.09 1014.90 1014.78 1014.76 1015.03 1014.93 1014.40 1013.58 1013.17 1013.42 1013.77 1013.25 1012.75 1012.50 1012.54 1012.74 1012.68 1012.85 1012.18 1011.34 1010.57 1010.16 1010.30 1010.40 1010.68 1011.78 1012.50 1012.73 1012.87 1012.13 1011.01 1010.91 1009.00 1008.63 1008.11 1007.78 1008.17 1008.83 1009.54 1009.89
1016.80 1016.26 1015.95 1015.55 1015.10 1014.94 1014.83 1015.03 1015.68 1016.51 1015.80 1015.00 1014.67 1014.60 1015.08 1015.32 1014.89 1014.35 1014.02 1014.38 1014.50 1014.43 1014.54 1014.01 1012.42 1011.31 1010.96 1010.68 1010.64 1010.97 1011.69 1012.70 1013.20 1013.37 1012.73 1011.42 1010.47 1009.11 1009.40 1009.13 1008.41 1008.51 1009.07 1009.58 1010.22
1016.69 1016.21 1015.93 1015.20 1014.78 1014.76 1015.16 1016.60 1017.85 1017.15 1016.52 1015.85 1015.47 1015.89 1016.52 1016.39 1016.19 1015.77 1015.72 1015.95 1016.31 1016.13 1016.06 1015.50 1014.02 1012.40 1011.38 1011.07 1010.97 1011.42 1011.89 1012.09 1013.02 1013.43 1013.30 1011.77 1010.32 1009.66 1009.74 1009.92 1009.84 1009.27 1009.75 1010.39 1010.53
1018.02 1017.42 1016.26 1015.09 1014.80 1015.09 1016.05 1018.10 1018.02 1017.41 1016.78 1016.23 1016.58 1016.84 1017.32 1017.53 1017.30 1017.17 1016.86 1017.06 1017.13 1017.00 1016.65 1016.55 1015.50 1013.72 1012.47 1011.52 1011.02 1011.07 1011.50 1012.56 1013.70 1013.99 1013.73 1011.88 1010.98 1009.88 1009.91 1009.92 1010.28 1010.47 1010.53 1010.84 1011.15
1018.37 1017.69 1015.95 1015.13 1014.98 1016.18 1018.41 1018.83 1018.32 1017.67 1017.22 1017.14 1017.36 1017.87 1018.55 1018.77 1018.68 1018.36 1017.77 1017.98 1017.45 1017.22 1016.86 1016.81 1016.67 1014.91 1013.66 1012.69 1012.12 1012.20 1012.13 1012.80 1013.64 1013.74 1013.30 1012.23 1010.88 1008.92 1008.59 1008.99 1010.01 1010.92 1011.33 1011.59 1012.19
1019.49 1018.72 1016.44 1015.56 1016.84 1018.96 1019.79 1019.30 1018.72 1018.44 1017.97 1017.82 1018.01 1018.48 1019.02 1019.34 1019.27 1019.04 1018.42 1017.72 1017.70 1017.60 1017.87 1017.82 1017.56 1016.63 1015.07 1013.25 1013.02 1013.07 1012.89 1013.42 1014.09 1013.41 1013.13 1012.12 1009.39 1008.91 1008.82 1009.37 1010.16 1010.58 1010.73 1011.11 1011.37
1021.40 1020.19 1017.43 1016.97 1019.38 1020.77 1020.42 1019.90 1019.39 1019.07 1018.91 1018.80 1018.92 1019.19 1019.52 1019.86 1019.98 1019.48 1018.78 1017.92 1017.96 1018.28 1018.40 1018.37 1018.44 1017.58 1015.50 1014.22 1013.28 1013.19 1012.65 1012.74 1013.08 1012.88 1012.30 1011.94 1009.53 1009.36 1009.47 1009.68 1009.93 1009.96 1010.45 1011.02 1011.37
1022.09 1021.58 1020.38 1020.21 1021.61 1021.54 1021.38 1020.84 1020.22 1019.63 1019.74 1019.63 1019.72 1019.96 1020.43 1020.54 1020.40 1019.96 1019.24 1018.58 1018.37 1018.55 1018.62 1018.78 1018.79 1018.38 1017.09 1015.94 1015.48 1014.16 1013.56 1013.30 1013.99 1013.63 1011.78 1010.41 1009.62 1009.38 1009.68 1009.62 1009.86 1010.22 1010.78 1011.00 1011.61
1023.00 1023.58 1023.32 1023.02 1022.82 1022.47 1022.01 1021.63 1021.09 1020.71 1020.50 1020.34 1020.66 1021.10 1021.48 1021.54 1021.28 1020.60 1019.92 1019.55 1018.96 1018.58 1018.76 1019.12 1018.87 1018.56 1017.35 1016.51 1015.94 1014.91 1013.26 1012.83 1013.89 1012.43 1012.47 1009.77 1009.42 1008.34 1008.22 1008.46 1008.18 1009.17 1010.29 1010.90 1011.56
1023.99 1024.17 1023.92 1023.90 1023.52 1022.99 1022.74 1022.64 1021.97 1021.71 1021.38 1021.15 1021.28 1021.56 1021.80 1021.91 1021.67 1021.07 1020.87 1020.53 1019.62 1018.99 1019.18 1019.32 1018.73 1018.22 1017.28 1015.72 1014.85 1014.42 1013.03 1011.50 1011.54 1010.44 1010.59 1009.43 1007.99 1007.42 1007.18 1008.53 1008.84 1009.21 1009.04 1010.11 1011.11
1024.35 1024.28 1024.22 1024.56 1024.13 1023.75 1023.52 1023.22 1022.76 1022.41 1021.76 1021.52 1021.79 1021.85 1021.40 1020.88 1020.68 1020.46 1020.37 1020.14 1019.38 1019.16 1018.96 1019.32 1018.81 1018.38 1016.27 1014.98 1014.28 1012.44 1011.27 1010.16 1009.56 1009.18 1008.82 1007.88 1005.56 1006.67 1007.01 1006.98 1007.20 1007.71 1008.85 1009.53 1010.68
Thickness
5698 5701 5705 5709 5715 5718 5721 5731 5738 5746 5754 5761 5770 5777 5784 5790 5800 5804 5810 5828 5834 5838 5838 5838 5839 5839 5838 5830 5834 5827 5789 5778 5793 5795 5801 5821 5821 5836 5841 5825 5829 5828 5821 5823 5814
5695 5699 5703 5709 5713 5718 5724 5728 5739 5745 5754 5762 5770 5778 5785 5790 5796 5806 5829 5833 5835 5836 5832 5827 5824 5832 5821 5823 5823 5809 5784 5797 5808 5812 5816 5826 5824 5829 5827 5823 5819 5816 5823 5823 5813
5695 5700 5704 5706 5711 5715 5720 5729 5735 5744 5753 5763 5771 5779 5786 5791 5800 5813 5829 5831 5833 5834 5834 5831 5829 5825 5818 5822 5818 5811 5797 5816 5820 5826 5827 5826 5829 5837 5822 5812 5821 5815 5813 5814 5810
5694 5699 5704 5709 5712 5715 5721 5727 5733 5744 5752 5762 5770 5779 5787 5791 5778 5817 5825 5829 5832 5833 5830 5824 5819 5811 5807 5809 5817 5806 5818 5823 5826 5831 5830 5829 5839 5829 5830 5835 5843 5830 5826 5815 5807
5694 5698 5703 5710 5715 5719 5724 5731 5733 5743 5752 5760 5769 5777 5787 5790 5798 5821 5823 5827 5830 5829 5823 5818 5810 5808 5802 5809 5816 5811 5820 5827 5830 5826 5831 5837 5835 5832 5830 5838 5842 5831 5820 5812 5808
5696 5699 5704 5711 5717 5723 5729 5731 5736 5743 5751 5759 5767 5772 5781 5783 5814 5819 5821 5823 5825 5823 5819 5819 5813 5816 5808 5809 5808 5815 5817 5819 5830 5829 5834 5832 5832 5844 5831 5833 5831 5825 5817 5812 5809
5699 5702 5707 5712 5717 5723 5729 5735 5740 5744 5752 5758 5764 5769 5776 5789 5811 5816 5818 5818 5823 5823 5816 5823 5823 5814 5811 5805 5813 5811 5805 5818 5827 5828 5829 5832 5818 5823 5834 5831 5824 5822 5820 5815 5812
5701 5706 5712 5716 5720 5727 5735 5740 5746 5752 5754 5755 5759 5767 5774 5804 5809 5813 5817 5817 5822 5822 5821 5825 5825 5814 5807 5810 5798 5789 5790 5780 5814 5819 5824 5822 5794 5826 5831 5827 5819 5823 5823 5819 5816
5706 5708 5716 5721 5727 5732 5739 5744 5748 5750 5751 5752 5756 5764 5773 5802 5802 5814 5817 5811 5817 5819 5822 5826 5817 5795 5796 5776 5762 5762 5761 5773 5788 5807 5816 5812 5800 5821 5827 5823 5817 5820 5823 5824 5821
5709 5715 5717 5724 5730 5736 5742 5745 5746 5746 5748 5750 5754 5756 5781 5777 5795 5807 5813 5813 5806 5808 5802 5800 5785 5774 5763 5757 5734 5751 5760 5769 5770 5789 5793 5792 5797 5813 5819 5823 5820 5817 5820 5823 5825
5712 5719 5725 5730 5734 5742 5748 5747 5736 5740 5742 5737 5740 5750 5767 5781 5799 5801 5807 5804 5802 5790 5771 5778 5764 5753 5759 5764 5763 5762 5760 5758 5774 5788 5785 5783 5785 5799 5814 5814 5814 5820 5821 5824 5827
5714 5722 5729 5736 5739 5746 5748 5734 5723 5721 5719 5745 5744 5749 5763 5775 5771 5791 5804 5785 5780 5763 5771 5758 5750 5762 5769 5764 5762 5759 5753 5750 5770 5783 5779 5779 5788 5804 5811 5821 5828 5827 5824 5829 5829
5715 5722 5730 5739 5743 5742 5736 5734 5732 5729 5716 5737 5749 5751 5760 5769 5767 5775 5790 5781 5770 5757 5755 5742 5762 5767 5763 5757 5753 5750 5748 5751 5752 5765 5776 5775 5772 5798 5816 5823 5827 5829 5832 5827 5827
5716 5722 5730 5738 5739 5731 5735 5735 5736 5735 5718 5736 5748 5755 5761 5765 5762 5785 5791 5781 5767 5753 5742 5746 5760 5758 5751 5748 5749 5736 5755 5754 5754 5746 5730 5770 5726 5774 5799 5808 5819 5827 5825 5834 5825
5718 5722 5728 5734 5730 5730 5736 5739 5742 5738 5694 5738 5748 5769 5761 5752 5757 5772 5787 5777 5754 5750 5743 5739 5752 5747 5741 5745 5752 5741 5760 5751 5752 5739 5738 5745 5724 5764 5787 5793 5807 5819 5821 5816 5816
5720 5723 5726 5728 5726 5734 5737 5739 5739 5715 5694 5722 5737 5734 5739 5741 5746 5755 5763 5773 5765 5746 5742 5742 5754 5749 5746 5756 5753 5758 5751 5748 5737 5722 5702 5739 5734 5743 5774 5786 5796 5802 5805 5805 5804
5720 5724 5726 5726 5727 5733 5735 5734 5711 5684 5715 5705 5712 5721 5718 5713 5723 5727 5724 5716 5709 5709 5710 5722 5734 5747 5752 5739 5744 5741 5714 5685 5697 5698 5700 5736 5732 5748 5771 5785 5797 5799 5800 5799 5799
5721 5724 5725 5726 5729 5731 5731 5718 5683 5695 5695 5712 5710 5710 5699 5699 5706 5708 5709 5697 5704 5701 5689 5688 5696 5729 5736 5732 5727 5714 5709 5678 5674 5680 5695 5729 5721 5746 5763 5776 5789 5796 5797 5795 5791
5718 5720 5722 5725 5727 5728 5719 5677 5671 5683 5692 5694 5699 5684 5682 5689 5694 5691 5687 5685 5684 5684 5674 5666 5683 5721 5729 5730 5728 5711 5695 5712 5693 5693 5682 5705 5732 5751 5758 5757 5768 5781 5784 5779 5781
5701 5703 5711 5721 5723 5718 5695 5673 5678 5686 5689 5692 5676 5681 5667 5666 5671 5670 5674 5674 5671 5675 5678 5670 5656 5696 5711 5720 5720 5709 5712 5689 5666 5669 5664 5689 5710 5720 5744 5750 5755 5759 5765 5767 5768
5693 5696 5708 5715 5716 5698 5665 5668 5675 5681 5683 5678 5671 5664 5655 5652 5654 5654 5658 5655 5662 5660 5663 5663 5647 5666 5691 5691 5689 5681 5678 5685 5672 5663 5662 5663 5689 5734 5749 5757 5751 5748 5750 5752 5749
5675 5681 5701 5707 5680 5652 5656 5663 5669 5666 5671 5668 5665 5659 5652 5648 5645 5645 5646 5656 5654 5649 5637 5640 5626 5622 5649 5686 5688 5679 5675 5669 5644 5660 5655 5665 5705 5734 5743 5749 5746 5744 5748 5749 5752
5654 5657 5687 5690 5654 5643 5652 5657 5659 5656 5654 5653 5652 5652 5647 5641 5631 5636 5641 5651 5646 5635 5625 5628 5608 5603 5629 5647 5667 5663 5674 5669 5656 5653 5666 5665 5693 5727 5730 5737 5741 5741 5741 5741 5742
5646 5651 5655 5652 5637 5641 5641 5643 5644 5651 5644 5643 5642 5636 5628 5626 5626 5622 5628 5634 5632 5624 5621 5612 5598 5597 5601 5614 5614 5632 5648 5652 5634 5621 5656 5672 5696 5704 5717 5725 5731 5732 5733 5735 5733
5629 5627 5626 5625 5629 5630 5632 5631 5633 5628 5632 5631 5626 5618 5613 5607 5605 5607 5613 5613 5617 5614 5600 5584 5579 5581 5593 5600 5598 5602 5628 5635 5615 5641 5624 5677 5675 5703 5723 5731 5742 5737 5728 5731 5727
5617 5616 5613 5610 5613 5623 5616 5615 5621 5618 5620 5617 5615 5609 5604 5594 5596 5598 5596 5589 5595 5596 5587 5569 5563 5568 5563 5586 5583 5567 5598 5626 5630 5645 5643 5667 5682 5712 5727 5720 5726 5728 5733 5730 5725
5603 5604 5605 5599 5602 5606 5605 5606 5608 5608 5613 5611 5603 5598 5596 5599 5599 5596 5590 5584 5588 5580 5575 5560 5549 5543 5551 5571 5558 5543 5578 5607 5624 5640 5653 5657 5709 5705 5712 5727 5732 5736 5730 5730 5724